Location: Amos
(48.5670°N, 78.1170°W)
Time: 05:37:33
(UTC-05:00)

NOAA 18 - Visible Passes

Search period start: 23 January 2020 00:00
Search period end: 02 February 2020 00:00
Orbit: 841 x 860 km, 99.1° (Epoch: 23 January)

Date Brightness Start Highest point End Pass type
(mag) Time Alt. Az. Time Alt. Az. Time Alt. Az.
23 Jan 7.1 19:48:20 18° N 19:48:20 18° N 19:49:49 10° N visible
23 Jan 8.0 21:30:19 11° NNW 21:30:19 11° NNW 21:30:32 10° NNW visible
24 Jan 7.0 19:36:16 18° NNE 19:36:16 18° NNE 19:37:53 10° N visible
24 Jan 7.8 21:18:16 13° NNW 21:18:16 13° NNW 21:18:53 10° NNW visible
25 Jan 7.0 19:24:13 18° NNE 19:24:13 18° NNE 19:25:55 10° N visible
25 Jan 7.6 21:06:13 15° NNW 21:06:13 15° NNW 21:07:11 10° NNW visible
26 Jan 7.0 19:12:10 17° NNE 19:12:10 17° NNE 19:13:54 10° N visible
26 Jan 7.4 20:54:10 18° NNW 20:54:10 18° NNW 20:55:27 10° NNW visible
27 Jan 7.0 19:00:06 16° NNE 19:00:06 16° NNE 19:01:49 10° NNE visible
27 Jan 7.2 20:42:06 20° NNW 20:42:06 20° NNW 20:43:41 10° NNW visible
28 Jan 7.0 18:48:03 14° NNE 18:48:03 14° NNE 18:49:40 10° NNE visible
28 Jan 7.0 20:30:02 22° N 20:30:02 22° N 20:31:53 10° NNW visible
29 Jan 7.1 18:35:59 12° NE 18:35:59 12° NE 18:37:20 10° NNE visible
29 Jan 6.9 20:17:59 23° N 20:17:59 23° N 20:20:04 10° N visible
30 Jan 7.2 18:23:55 11° NE 18:23:55 11° NE 18:24:33 10° NE visible
30 Jan 6.7 20:05:55 25° N 20:05:55 25° N 20:08:12 10° N visible
30 Jan 8.0 21:47:55 12° NW 21:47:55 12° NW 21:48:28 10° NW visible
31 Jan 6.6 19:53:52 25° NNE 19:53:52 25° NNE 19:56:19 10° N visible
31 Jan 7.8 21:35:51 15° NW 21:35:51 15° NW 21:36:55 10° NNW visible
01 Feb 6.6 19:41:47 24° NNE 19:41:47 24° NNE 19:44:25 10° N visible
01 Feb 7.5 21:23:47 18° NW 21:23:47 18° NW 21:25:17 10° NNW visible
